KE5KZS Weather Reports


Display with metric or nautical units.
time (UTC)temp
F
wind
direction
speed
MPH
gust
MPH
rain 1hr
in
rain 24hr
in
rain mn
in
humidity
%
barometer
mb
20260504034516 70 180 2.0 7.0 0.00 0.00 0.00 55 1014.4
20260504033516 70 158 4.0 8.0 0.00 0.00 0.00 54 1014.4
20260504032516 70 180 3.0 9.0 0.00 0.00 0.00 54 1014.4
20260504031516 71 158 4.0 8.0 0.00 0.00 0.00 53 1014.5
20260504030536 71 180 3.0 8.0 0.00 0.00 0.00 52 1014.4
20260504025516 71 158 4.0 9.0 0.00 0.00 0.00 51 1014.2
20260504024516 72 158 4.0 9.0 0.00 0.00 0.00 50 1014.2
20260504023516 72 180 5.0 10.0 0.00 0.00 0.00 49 1014.2
20260504022536 72 158 4.0 9.0 0.00 0.00 0.00 48 1013.9
20260504021516 73 180 4.0 9.0 0.00 0.00 0.00 47 1013.9
20260504020536 73 158 4.0 6.0 0.00 0.00 0.00 47 1014.0
20260504015516 74 180 5.0 10.0 0.00 0.00 0.00 46 1013.8
20260504014516 74 158 3.0 8.0 0.00 0.00 0.00 46 1013.7
20260504013536 74 158 6.0 11.0 0.00 0.00 0.00 45 1013.5
20260504012516 75 158 5.0 10.0 0.00 0.00 0.00 45 1013.4
20260504011516 75 180 3.0 11.0 0.00 0.00 0.00 44 1013.3
20260504010516 76 158 3.0 6.0 0.00 0.00 0.00 43 1013.4
20260504005516 76 180 4.0 10.0 0.00 0.00 0.00 41 1013.2
20260504004516 77 158 5.0 9.0 0.00 0.00 0.00 41 1013.2
20260504003516 77 158 5.0 10.0 0.00 0.00 0.00 41 1013.3
20260504002516 78 180 5.0 11.0 0.00 0.00 0.00 39 1013.3
20260504001516 78 203 5.0 11.0 0.00 0.00 0.00 39 1013.3
20260504000516 79 180 5.0 11.0 0.00 0.00 0.00 40 1013.3
20260503235516 79 203 6.0 11.0 0.00 0.00 0.00 39 1013.5
20260503234516 80 203 4.0 9.0 0.00 0.00 0.00 38 1013.6
20260503233516 80 180 4.0 10.0 0.00 0.00 0.00 37 1013.7
20260503232536 80 203 4.0 11.0 0.00 0.00 0.00 37 1013.8
20260503231536 81 203 5.0 11.0 0.00 0.00 0.00 35 1013.8
20260503230536 81 203 5.0 11.0 0.00 0.00 0.00 36 1014.0
20260503225516 81 180 6.0 16.0 0.00 0.00 0.00 36 1013.8
20260503224516 82 203 5.0 9.0 0.00 0.00 0.00 34 1014.1
20260503223516 82 203 4.0 12.0 0.00 0.00 0.00 36 1014.2
20260503222516 83 225 5.0 13.0 0.00 0.00 0.00 35 1014.2
20260503221516 83 203 4.0 13.0 0.00 0.00 0.00 35 1014.3
20260503220516 84 203 6.0 15.0 0.00 0.00 0.00 33 1014.6
20260503215516 85 203 5.0 9.0 0.00 0.00 0.00 34 1014.9
20260503214516 85 203 5.0 11.0 0.00 0.00 0.00 33 1014.9
20260503213536 85 180 5.0 13.0 0.00 0.00 0.00 34 1015.2
20260503213052 86 180 3.0 4.0 0.00 0.00 0.00 33 1015.2
20260503212016 85 203 4.0 9.0 0.00 0.00 0.00 33 1015.2
20260503211016 85 203 4.0 10.0 0.00 0.00 0.00 33 1015.5
20260503210016 85 180 4.0 11.0 0.00 0.00 0.00 32 1015.5
20260503205036 85 180 5.0 12.0 0.00 0.00 0.00 33 1015.9
20260503204016 85 180 7.0 13.0 0.00 0.00 0.00 33 1016.0
20260503203056 86 180 4.0 7.0 0.00 0.00 0.00 35 1016.2
20260503202016 86 203 5.0 17.0 0.00 0.00 0.00 34 1016.3
20260503201016 86 203 3.0 8.0 0.00 0.00 0.00 36 1016.4
20260503200516 86 180 3.0 9.0 0.00 0.00 0.00 35 1016.6
20260503195516 85 203 4.0 14.0 0.00 0.00 0.00 37 1016.7
20260503194516 86 203 4.0 9.0 0.00 0.00 0.00 37 1016.9
20260503193516 85 135 4.0 10.0 0.00 0.00 0.00 35 1017.2
20260503192516 85 203 3.0 9.0 0.00 0.00 0.00 38 1017.4
20260503191516 84 203 4.0 12.0 0.00 0.00 0.00 40 1017.5
20260503190516 84 203 4.0 10.0 0.00 0.00 0.00 39 1017.6
20260503185516 84 203 2.0 6.0 0.00 0.00 0.00 38 1017.8
20260503184516 85 203 4.0 9.0 0.00 0.00 0.00 43 1018.0
20260503183516 84 158 4.0 11.0 0.00 0.00 0.00 40 1018.1
20260503182516 84 180 4.0 9.0 0.00 0.00 0.00 43 1018.2
20260503181516 84 203 3.0 9.0 0.00 0.00 0.00 42 1018.5
20260503180516 83 203 3.0 7.0 0.00 0.00 0.00 44 1018.5
20260503175516 83 203 2.0 6.0 0.00 0.00 0.00 45 1018.9
20260503174516 83 203 4.0 10.0 0.00 0.00 0.00 46 1019.1
20260503173536 83 203 3.0 9.0 0.00 0.00 0.00 47 1019.3
20260503172516 82 203 4.0 9.0 0.00 0.00 0.00 46 1019.4
20260503171516 82 203 2.0 8.0 0.00 0.00 0.00 47 1019.4
20260503170516 82 203 3.0 10.0 0.00 0.00 0.00 48 1019.6
20260503150556 75 203 4.0 9.0 0.00 0.00 0.00 55 1020.0
20260503130516 58 203 1.0 7.0 0.00 0.00 0.00 78 1019.6
20260503081016 61 180 2.0 7.0 0.00 0.00 0.00 66 1018.6
20260503072016 62 180 3.0 6.0 0.00 0.00 0.00 66 1018.9
20260503071016 62 203 3.0 6.0 0.00 0.00 0.00 67 1019.0
20260503054516 60 0.0 0.0 0.00 0.00 0.00 74 1018.6
20260503053516 60 0.0 0.0 0.00 0.00 0.00 74 1018.6
20260503052516 60 203 1.0 3.0 0.00 0.00 0.00 72 1018.6
20260503051556 59 203 1.0 4.0 0.00 0.00 0.00 73 1018.5
20260503050516 60 0.0 0.0 0.00 0.00 0.00 76 1018.4
20260503045517 61 0.0 0.0 0.00 0.00 0.00 75 1018.4
20260503044516 62 0.0 0.0 0.00 0.00 0.00 72 1018.4
20260503043517 62 0.0 2.0 0.00 0.00 0.00 67 1018.4
20260503042516 62 0.0 2.0 0.00 0.00 0.00 66 1018.3
20260503041516 62 0.0 2.0 0.00 0.00 0.00 66 1018.3
20260503040516 62 203 1.0 4.0 0.00 0.00 0.00 67 1018.5
20260503035516 61 203 1.0 2.0 0.00 0.00 0.00 68 1018.4